TimePDT,TemperatureF,Dew PointF,Humidity,Sea Level PressureIn,VisibilityMPH,Wind Direction,Wind SpeedMPH,Gust SpeedMPH,PrecipitationIn,Events,Conditions,WindDirDegrees,DateUTC
12:53 AM,55.9,54.0,93,30.05,10.0,WSW,4.6,-,N/A,,Scattered Clouds,250,2013-03-15 07:53:00
1:39 AM,55.4,53.6,94,30.05,4.0,WSW,5.8,-,N/A,Fog,Patches of Fog,250,2013-03-15 08:39:00
1:53 AM,55.9,55.0,97,30.04,4.0,Calm,Calm,-,N/A,Fog,Patches of Fog,0,2013-03-15 08:53:00
2:51 AM,55.4,53.6,94,30.03,0.8,SW,3.5,-,N/A,Fog,Patches of Fog,220,2013-03-15 09:51:00
2:53 AM,55.9,54.0,93,30.02,0.2,SW,3.5,-,N/A,Fog,Patches of Fog,220,2013-03-15 09:53:00
3:53 AM,55.0,53.1,93,30.03,0.2,West,6.9,-,N/A,Fog,Fog,260,2013-03-15 10:53:00
4:50 AM,53.6,53.6,100,30.02,0.5,Calm,Calm,-,N/A,Fog,Fog,0,2013-03-15 11:50:00
4:53 AM,54.0,53.1,97,30.01,0.5,Calm,Calm,-,N/A,Fog,Fog,0,2013-03-15 11:53:00
5:21 AM,53.6,53.6,100,30.01,0.2,Calm,Calm,-,N/A,Fog,Fog,0,2013-03-15 12:21:00
5:46 AM,53.6,53.6,100,30.01,0.5,Variable,3.5,-,N/A,Fog,Fog,0,2013-03-15 12:46:00
5:53 AM,54.0,53.1,97,30.01,1.0,East,4.6,-,N/A,Fog,Patches of Fog,90,2013-03-15 12:53:00
6:53 AM,55.0,53.1,93,30.01,1.2,ENE,4.6,-,N/A,Fog,Patches of Fog,70,2013-03-15 13:53:00
7:53 AM,55.9,53.1,90,30.02,1.5,South,3.5,-,N/A,Fog,Patches of Fog,170,2013-03-15 14:53:00
8:40 AM,55.4,53.6,94,30.03,1.5,Calm,Calm,-,N/A,Fog,Patches of Fog,0,2013-03-15 15:40:00
8:53 AM,55.9,53.1,90,30.03,1.5,Variable,3.5,-,N/A,Fog,Patches of Fog,0,2013-03-15 15:53:00
9:41 AM,57.2,53.6,88,30.04,2.0,Calm,Calm,-,N/A,Fog,Patches of Fog,0,2013-03-15 16:41:00
9:53 AM,59.0,53.1,81,30.04,2.5,Calm,Calm,-,N/A,Fog,Patches of Fog,0,2013-03-15 16:53:00
10:53 AM,61.0,54.0,78,30.04,2.5,Variable,3.5,-,N/A,Fog,Patches of Fog,0,2013-03-15 17:53:00
11:53 AM,64.0,55.0,73,30.02,2.5,West,5.8,-,N/A,Fog,Patches of Fog,260,2013-03-15 18:53:00
12:53 PM,63.0,55.0,75,30.01,2.5,West,11.5,-,N/A,Fog,Patches of Fog,270,2013-03-15 19:53:00
1:53 PM,60.1,54.0,80,29.99,2.0,West,11.5,-,N/A,Fog,Patches of Fog,280,2013-03-15 20:53:00
2:13 PM,60.8,53.6,77,29.99,2.0,West,12.7,-,N/A,Fog,Patches of Fog,270,2013-03-15 21:13:00
2:53 PM,59.0,54.0,83,29.98,2.0,West,10.4,-,N/A,Fog,Patches of Fog,270,2013-03-15 21:53:00
3:07 PM,59.0,53.6,82,29.98,0.5,West,11.5,-,N/A,Fog,Patches of Fog,270,2013-03-15 22:07:00
3:53 PM,57.9,53.1,84,29.97,0.5,WSW,10.4,-,N/A,Fog,Patches of Fog,250,2013-03-15 22:53:00
4:44 PM,57.2,53.6,88,29.97,0.2,West,9.2,-,N/A,Fog,Patches of Fog,270,2013-03-15 23:44:00
4:53 PM,57.0,53.1,87,29.96,0.2,West,5.8,-,N/A,Fog,Fog,260,2013-03-15 23:53:00
5:22 PM,55.4,53.6,94,29.96,0.5,West,5.8,-,N/A,Fog,Fog,260,2013-03-16 00:22:00
5:53 PM,55.9,52.0,87,29.96,0.5,WSW,5.8,-,N/A,Fog,Fog,250,2013-03-16 00:53:00
6:40 PM,53.6,51.8,94,29.96,0.2,West,10.4,-,N/A,Fog,Fog,260,2013-03-16 01:40:00
6:53 PM,54.0,51.1,90,29.96,0.2,West,10.4,-,N/A,Fog,Fog,270,2013-03-16 01:53:00
7:18 PM,53.6,51.8,94,29.97,0.2,West,10.4,-,N/A,Fog,Fog,260,2013-03-16 02:18:00
7:53 PM,53.1,51.1,93,29.97,0.2,WSW,9.2,-,N/A,Fog,Fog,240,2013-03-16 02:53:00
8:53 PM,53.1,52.0,96,29.97,0.2,SSW,3.5,-,N/A,Fog,Fog,200,2013-03-16 03:53:00
9:31 PM,53.6,51.8,94,29.97,4.0,South,3.5,-,N/A,,Mostly Cloudy,190,2013-03-16 04:31:00
9:53 PM,53.1,51.1,93,29.97,3.0,Calm,Calm,-,N/A,,Mostly Cloudy,0,2013-03-16 04:53:00
10:53 PM,54.0,52.0,93,29.98,3.0,Variable,3.5,-,N/A,,Mostly Cloudy,0,2013-03-16 05:53:00
11:07 PM,55.4,51.8,88,29.98,3.0,Calm,Calm,-,N/A,,Mostly Cloudy,0,2013-03-16 06:07:00
11:38 PM,55.4,51.8,88,29.97,2.5,Variable,3.5,-,N/A,Fog,Patches of Fog,0,2013-03-16 06:38:00
11:53 PM,55.0,51.1,86,29.97,2.5,SSW,4.6,-,N/A,Fog,Patches of Fog,210,2013-03-16 06:53:00